Time,TemperatureF,DewpointF,PressureIn,WindDirection,WindDirectionDegrees,WindSpeedMPH,WindSpeedGustMPH,Humidity,HourlyPrecipIn,Conditions,Clouds,dailyrainin,SoftwareType,DateUTC
2013-04-13 12:33:00,34.2,27.4,23.16,SW,225,0.4,0.4,76,0.00,,,0.00,WUHU216HW,2013-04-13 18:33:00,
2013-04-13 12:39:00,34.2,27.4,23.16,SW,225,0.4,0.4,76,0.00,,,0.00,WUHU216HW,2013-04-13 18:39:00,
2013-04-13 13:00:00,44.5,28.4,22.91,SSW,203,7.2,8.7,53,0.00,,,0.00,WUHU216HW,2013-04-13 19:00:00,
2013-04-13 13:05:00,44.5,28.4,22.90,West,270,5.6,8.7,53,0.00,,,0.00,WUHU216HW,2013-04-13 19:05:00,
2013-04-13 13:10:00,44.5,28.4,22.90,East,90,1.6,8.1,53,0.00,,,0.00,WUHU216HW,2013-04-13 19:10:00,
2013-04-13 13:15:00,44.6,28.5,22.90,SE,135,1.6,8.1,53,0.00,,,0.00,WUHU216HW,2013-04-13 19:15:00,
2013-04-13 13:20:00,44.6,28.1,22.90,East,90,4.5,6.0,52,0.00,,,0.00,WUHU216HW,2013-04-13 19:20:00,
2013-04-13 13:25:00,44.8,27.8,22.90,WSW,248,1.8,7.2,51,0.00,,,0.00,WUHU216HW,2013-04-13 19:25:00,
2013-04-13 13:30:00,44.8,27.4,22.90,WSW,248,6.5,7.2,50,0.00,,,0.00,WUHU216HW,2013-04-13 19:30:00,
2013-04-13 13:35:00,45.0,28.0,22.90,South,180,2.7,6.9,51,0.00,,,0.00,WUHU216HW,2013-04-13 19:35:00,
2013-04-13 13:40:00,45.0,28.5,22.90,SW,225,0.7,4.7,52,0.00,,,0.00,WUHU216HW,2013-04-13 19:40:00,
2013-04-13 13:45:00,45.0,28.0,22.90,East,90,0.7,6.0,51,0.00,,,0.00,WUHU216HW,2013-04-13 19:45:00,
2013-04-13 13:51:00,45.0,28.0,22.89,SSW,203,1.1,9.8,51,0.00,,,0.00,WUHU216HW,2013-04-13 19:51:00,
2013-04-13 13:56:00,45.0,28.9,22.90,SW,225,4.7,9.8,53,0.00,,,0.00,WUHU216HW,2013-04-13 19:56:00,
2013-04-13 14:01:00,44.6,28.1,22.90,NW,315,1.6,7.6,52,0.00,,,0.00,WUHU216HW,2013-04-13 20:01:00,
2013-04-13 14:06:00,44.5,27.9,22.89,SW,225,5.4,6.9,52,0.00,,,0.00,WUHU216HW,2013-04-13 20:06:00,
2013-04-13 14:11:00,44.5,28.4,22.89,ESE,113,2.5,5.4,53,0.00,,,0.00,WUHU216HW,2013-04-13 20:11:00,
2013-04-13 14:16:00,44.3,28.2,22.89,SW,225,0.7,8.9,53,0.00,,,0.00,WUHU216HW,2013-04-13 20:16:00,
2013-04-13 14:21:00,44.3,27.7,22.88,NW,315,4.7,8.9,52,0.00,,,0.00,WUHU216HW,2013-04-13 20:21:00,
2013-04-13 14:27:00,44.3,28.2,22.88,South,180,2.9,4.7,53,0.00,,,0.00,WUHU216HW,2013-04-13 20:27:00,
2013-04-13 14:32:00,44.1,28.4,22.88,WSW,248,3.8,9.8,54,0.00,,,0.00,WUHU216HW,2013-04-13 20:32:00,
2013-04-13 14:37:00,43.9,29.2,22.89,NE,45,0.7,9.8,56,0.00,,,0.00,WUHU216HW,2013-04-13 20:37:00,
2013-04-13 14:42:00,43.6,29.7,22.89,NNW,338,4.5,6.9,58,0.00,,,0.00,WUHU216HW,2013-04-13 20:42:00,
2013-04-13 14:47:00,43.2,29.8,22.88,West,270,1.6,6.9,59,0.00,,,0.00,WUHU216HW,2013-04-13 20:47:00,
2013-04-13 14:52:00,43.0,29.6,22.88,South,180,2.5,8.5,59,0.00,,,0.00,WUHU216HW,2013-04-13 20:52:00,
2013-04-13 14:57:00,42.8,29.9,22.89,East,90,1.8,8.5,60,0.00,,,0.00,WUHU216HW,2013-04-13 20:57:00,
2013-04-13 15:02:00,42.8,29.9,22.88,North,0,1.1,3.6,60,0.00,,,0.00,WUHU216HW,2013-04-13 21:02:00,
2013-04-13 15:07:00,42.8,30.7,22.89,West,270,6.9,6.9,62,0.00,,,0.00,WUHU216HW,2013-04-13 21:07:00,
2013-04-13 15:12:00,42.7,30.5,22.88,NNW,338,3.4,7.8,62,0.00,,,0.00,WUHU216HW,2013-04-13 21:12:00,
2013-04-13 15:17:00,42.5,31.2,22.88,SSW,203,4.3,9.8,64,0.00,,,0.00,WUHU216HW,2013-04-13 21:17:00,
2013-04-13 15:23:00,42.3,31.3,22.88,East,90,2.0,9.8,65,0.00,,,0.00,WUHU216HW,2013-04-13 21:23:00,
2013-04-13 15:28:00,42.1,32.3,22.88,SE,135,6.0,7.2,68,0.00,,,0.00,WUHU216HW,2013-04-13 21:28:00,
2013-04-13 15:33:00,41.8,31.6,22.88,SSW,203,1.3,7.2,67,0.00,,,0.00,WUHU216HW,2013-04-13 21:33:00,
2013-04-13 15:38:00,41.6,31.4,22.88,East,90,0.9,5.8,67,0.00,,,0.00,WUHU216HW,2013-04-13 21:38:00,
2013-04-13 15:43:00,41.6,31.4,22.89,WNW,293,3.8,3.8,67,0.00,,,0.00,WUHU216HW,2013-04-13 21:43:00,
2013-04-13 15:48:00,41.6,31.4,22.89,WNW,293,3.8,3.8,67,0.00,,,0.00,WUHU216HW,2013-04-13 21:48:00,
2013-04-13 16:00:00,39.6,32.0,22.88,West,270,4.7,4.7,74,0.00,,,0.00,WUHU216HW,2013-04-13 22:00:00,
2013-04-13 16:05:00,39.6,32.3,22.88,West,270,3.4,7.8,75,0.00,,,0.00,WUHU216HW,2013-04-13 22:05:00,
2013-04-13 16:10:00,39.6,32.3,22.88,WNW,293,4.5,7.8,75,0.00,,,0.00,WUHU216HW,2013-04-13 22:10:00,
2013-04-13 16:15:00,39.6,32.3,22.88,South,180,4.0,5.8,75,0.00,,,0.00,WUHU216HW,2013-04-13 22:15:00,
2013-04-13 16:20:00,39.6,32.3,22.88,SW,225,4.0,5.8,75,0.00,,,0.00,WUHU216HW,2013-04-13 22:20:00,
2013-04-13 16:25:00,39.6,32.7,22.87,West,270,5.8,6.5,76,0.00,,,0.00,WUHU216HW,2013-04-13 22:25:00,
2013-04-13 16:30:00,39.6,32.3,22.87,ESE,113,1.6,6.5,75,0.00,,,0.00,WUHU216HW,2013-04-13 22:30:00,
2013-04-13 16:35:00,39.6,32.9,22.87,SSE,158,7.6,7.6,77,0.00,,,0.00,WUHU216HW,2013-04-13 22:35:00,
2013-04-13 16:40:00,39.4,32.8,22.86,South,180,4.3,7.6,77,0.00,,,0.00,WUHU216HW,2013-04-13 22:40:00,
2013-04-13 16:45:00,39.4,32.8,22.87,South,180,5.4,5.6,77,0.00,,,0.00,WUHU216HW,2013-04-13 22:45:00,
2013-04-13 16:50:00,39.1,33.1,22.87,SSW,203,1.1,5.4,79,0.00,,,0.00,WUHU216HW,2013-04-13 22:50:00,
2013-04-13 16:55:00,38.7,32.8,22.87,NW,315,1.1,4.7,79,0.00,,,0.00,WUHU216HW,2013-04-13 22:55:00,
2013-04-13 17:01:00,38.5,32.6,22.87,NE,45,0.9,4.0,79,0.00,,,0.00,WUHU216HW,2013-04-13 23:01:00,
2013-04-13 17:06:00,38.3,31.8,22.88,NE,45,0.4,4.0,77,0.00,,,0.00,WUHU216HW,2013-04-13 23:06:00,
2013-04-13 17:11:00,38.0,31.8,22.88,WNW,293,2.7,2.7,78,0.00,,,0.00,WUHU216HW,2013-04-13 23:11:00,
2013-04-13 17:16:00,37.6,31.7,22.90,ESE,113,1.1,3.4,79,0.00,,,0.00,WUHU216HW,2013-04-13 23:16:00,
2013-04-13 17:21:00,37.1,31.5,22.90,East,90,1.8,5.6,80,0.00,,,0.00,WUHU216HW,2013-04-13 23:21:00,
2013-04-13 17:26:00,36.5,31.5,22.90,WSW,248,1.8,5.6,82,0.00,,,0.00,WUHU216HW,2013-04-13 23:26:00,
2013-04-13 17:31:00,35.8,30.8,22.90,NNW,338,2.7,4.0,82,0.00,,,0.00,WUHU216HW,2013-04-13 23:31:00,
2013-04-13 17:36:00,35.3,30.2,22.90,SW,225,0.2,2.7,82,0.00,,,0.00,WUHU216HW,2013-04-13 23:36:00,
2013-04-13 17:41:00,34.9,29.9,22.90,WNW,293,0.4,2.0,82,0.00,,,0.00,WUHU216HW,2013-04-13 23:41:00,
2013-04-13 17:47:00,34.6,29.5,22.90,WSW,248,0.2,2.0,82,0.00,,,0.00,WUHU216HW,2013-04-13 23:47:00,
2013-04-13 17:52:00,34.4,29.3,22.89,West,270,0.7,2.0,82,0.00,,,0.00,WUHU216HW,2013-04-13 23:52:00,
2013-04-13 17:57:00,34.4,29.7,22.89,ESE,113,6.3,6.3,83,0.00,,,0.00,WUHU216HW,2013-04-13 23:57:00,
2013-04-13 18:02:00,34.4,30.5,22.90,SW,225,3.4,6.3,86,0.00,,,0.00,WUHU216HW,2013-04-14 00:02:00,
2013-04-13 18:07:00,34.2,29.8,22.89,WNW,293,0.0,4.0,84,0.00,,,0.00,WUHU216HW,2013-04-14 00:07:00,
2013-04-13 18:12:00,34.0,29.6,22.89,SSW,203,0.4,1.6,84,0.00,,,0.00,WUHU216HW,2013-04-14 00:12:00,
2013-04-13 18:17:00,34.0,29.6,22.90,WSW,248,1.8,2.0,84,0.00,,,0.00,WUHU216HW,2013-04-14 00:17:00,
2013-04-13 18:22:00,34.0,30.2,22.90,WSW,248,2.5,5.8,86,0.00,,,0.00,WUHU216HW,2013-04-14 00:22:00,
2013-04-13 18:27:00,33.8,30.0,22.90,SW,225,2.0,5.8,86,0.00,,,0.00,WUHU216HW,2013-04-14 00:27:00,
2013-04-13 18:32:00,33.7,29.8,22.90,West,270,1.8,4.3,86,0.00,,,0.00,WUHU216HW,2013-04-14 00:32:00,
2013-04-13 18:37:00,33.5,29.7,22.91,SSW,203,2.2,3.4,86,0.00,,,0.00,WUHU216HW,2013-04-14 00:37:00,
2013-04-13 18:42:00,33.3,29.5,22.90,South,180,0.4,4.0,86,0.00,,,0.00,WUHU216HW,2013-04-14 00:42:00,
2013-04-13 18:47:00,33.3,29.5,22.90,SSW,203,1.1,4.0,86,0.00,,,0.00,WUHU216HW,2013-04-14 00:47:00,
2013-04-13 18:53:00,33.1,29.6,22.91,WSW,248,1.6,2.9,87,0.00,,,0.00,WUHU216HW,2013-04-14 00:53:00,
2013-04-13 18:58:00,32.9,30.1,22.93,SSW,203,4.0,4.0,89,0.00,,,0.00,WUHU216HW,2013-04-14 00:58:00,
2013-04-13 19:03:00,32.8,29.9,22.92,SW,225,3.4,4.5,89,0.00,,,0.00,WUHU216HW,2013-04-14 01:03:00,
2013-04-13 19:08:00,32.8,29.9,22.91,SW,225,3.4,6.0,89,0.00,,,0.00,WUHU216HW,2013-04-14 01:08:00,
2013-04-13 19:13:00,32.4,29.5,22.91,SSW,203,2.2,6.0,89,0.00,,,0.00,WUHU216HW,2013-04-14 01:13:00,
2013-04-13 19:18:00,32.4,29.3,22.90,WNW,293,2.7,2.9,88,0.00,,,0.00,WUHU216HW,2013-04-14 01:18:00,
2013-04-13 19:23:00,32.2,29.1,22.90,WNW,293,0.2,2.7,88,0.00,,,0.00,WUHU216HW,2013-04-14 01:23:00,
2013-04-13 19:28:00,32.2,29.1,22.90,WNW,293,0.2,1.8,88,0.00,,,0.00,WUHU216HW,2013-04-14 01:28:00,
2013-04-13 19:52:00,32.2,28.5,22.92,West,270,0.4,0.4,86,0.00,,,0.00,WUHU216HW,2013-04-14 01:52:00,
2013-04-13 19:57:00,32.2,28.5,22.93,SE,135,1.1,1.1,86,0.00,,,0.00,WUHU216HW,2013-04-14 01:57:00,
2013-04-13 20:02:00,32.0,28.6,22.93,WNW,293,0.7,3.1,87,0.00,,,0.00,WUHU216HW,2013-04-14 02:02:00,
2013-04-13 20:07:00,32.0,28.6,22.94,WNW,293,2.9,3.1,87,0.00,,,0.00,WUHU216HW,2013-04-14 02:07:00,
2013-04-13 20:12:00,32.0,28.6,22.93,WNW,293,0.7,2.9,87,0.00,,,0.00,WUHU216HW,2013-04-14 02:12:00,
2013-04-13 20:17:00,31.9,28.2,22.93,WNW,293,0.0,2.5,86,0.00,,,0.00,WUHU216HW,2013-04-14 02:17:00,
2013-04-13 20:23:00,31.9,28.2,22.93,WNW,293,0.4,1.1,86,0.00,,,0.00,WUHU216HW,2013-04-14 02:23:00,
2013-04-13 20:28:00,31.9,28.2,22.93,WNW,293,1.6,2.0,86,0.00,,,0.00,WUHU216HW,2013-04-14 02:28:00,
2013-04-13 20:33:00,31.7,28.0,22.94,WNW,293,0.0,2.0,86,0.00,,,0.00,WUHU216HW,2013-04-14 02:33:00,
2013-04-13 20:38:00,31.7,28.0,22.94,WNW,293,0.4,0.7,86,0.00,,,0.00,WUHU216HW,2013-04-14 02:38:00,
2013-04-13 20:43:00,31.5,27.8,22.95,WNW,293,0.0,1.1,86,0.00,,,0.00,WUHU216HW,2013-04-14 02:43:00,
2013-04-13 20:48:00,31.5,27.8,22.95,WNW,293,0.0,1.1,86,0.00,,,0.00,WUHU216HW,2013-04-14 02:48:00,
2013-04-13 20:53:00,31.5,27.8,22.95,WNW,293,0.2,1.1,86,0.00,,,0.00,WUHU216HW,2013-04-14 02:53:00,
2013-04-13 20:58:00,31.3,27.6,22.96,WNW,293,0.4,1.1,86,0.00,,,0.00,WUHU216HW,2013-04-14 02:58:00,
2013-04-13 21:03:00,31.3,27.6,22.95,WNW,293,0.4,0.7,86,0.00,,,0.00,WUHU216HW,2013-04-14 03:03:00,
2013-04-13 21:08:00,31.3,27.6,22.96,WNW,293,0.0,0.4,86,0.00,,,0.00,WUHU216HW,2013-04-14 03:08:00,
2013-04-13 21:13:00,31.3,27.6,22.96,WNW,293,0.0,0.2,86,0.00,,,0.00,WUHU216HW,2013-04-14 03:13:00,
2013-04-13 21:18:00,31.1,27.5,22.96,WNW,293,0.0,1.3,86,0.00,,,0.00,WUHU216HW,2013-04-14 03:18:00,
2013-04-13 21:23:00,31.1,27.5,22.96,WNW,293,0.4,1.3,86,0.00,,,0.00,WUHU216HW,2013-04-14 03:23:00,
2013-04-13 21:28:00,31.1,27.5,22.96,WNW,293,0.4,0.4,86,0.00,,,0.00,WUHU216HW,2013-04-14 03:28:00,
2013-04-13 21:49:00,30.6,27.6,22.98,WNW,293,0.4,0.4,88,0.00,,,0.00,WUHU216HW,2013-04-14 03:49:00,
2013-04-13 21:54:00,30.6,27.6,22.98,WNW,293,0.4,0.4,88,0.00,,,0.00,WUHU216HW,2013-04-14 03:54:00,
2013-04-13 21:59:00,30.6,27.6,22.98,WNW,293,0.4,0.4,88,0.00,,,0.00,WUHU216HW,2013-04-14 03:59:00,
2013-04-13 22:00:00,30.6,27.6,22.98,WNW,293,0.4,0.4,88,0.00,,,0.00,WUHU216HW,2013-04-14 04:00:00,
2013-04-13 22:05:00,30.6,27.2,22.99,WNW,293,0.0,0.4,87,0.00,,,0.00,WUHU216HW,2013-04-14 04:05:00,
2013-04-13 22:10:00,30.6,27.2,22.99,WNW,293,0.0,0.4,87,0.00,,,0.00,WUHU216HW,2013-04-14 04:10:00,
2013-04-13 22:15:00,30.6,27.2,23.00,WNW,293,0.4,0.4,87,0.00,,,0.00,WUHU216HW,2013-04-14 04:15:00,
2013-04-13 22:20:00,30.6,27.2,23.00,WNW,293,0.4,0.4,87,0.00,,,0.00,WUHU216HW,2013-04-14 04:20:00,
2013-04-13 22:45:00,30.2,26.8,23.00,WNW,293,0.0,0.0,87,0.00,,,0.00,WUHU216HW,2013-04-14 04:45:00,
2013-04-13 22:50:00,30.1,26.4,23.00,WNW,293,1.8,1.8,86,0.00,,,0.00,WUHU216HW,2013-04-14 04:50:00,
2013-04-13 22:55:00,29.9,26.5,23.00,WNW,293,0.0,1.8,87,0.00,,,0.00,WUHU216HW,2013-04-14 04:55:00,
2013-04-13 23:00:00,29.9,26.2,23.01,WNW,293,0.4,0.7,86,0.00,,,0.00,WUHU216HW,2013-04-14 05:00:00,
2013-04-13 23:05:00,29.7,26.0,23.01,WNW,293,1.1,1.1,86,0.00,,,0.00,WUHU216HW,2013-04-14 05:05:00,
2013-04-13 23:10:00,29.3,25.7,23.01,WNW,293,0.0,1.1,86,0.00,,,0.00,WUHU216HW,2013-04-14 05:10:00,
2013-04-13 23:15:00,29.2,25.5,23.01,WNW,293,0.2,1.8,86,0.00,,,0.00,WUHU216HW,2013-04-14 05:15:00,
2013-04-13 23:20:00,28.8,24.8,23.01,WNW,293,0.9,1.8,85,0.00,,,0.00,WUHU216HW,2013-04-14 05:20:00,
2013-04-13 23:25:00,28.6,24.4,23.01,WNW,293,0.2,1.1,84,0.00,,,0.00,WUHU216HW,2013-04-14 05:25:00,
2013-04-13 23:30:00,28.4,24.2,23.01,WNW,293,0.9,0.9,84,0.00,,,0.00,WUHU216HW,2013-04-14 05:30:00,
2013-04-13 23:35:00,28.3,23.8,23.01,WNW,293,0.0,0.9,83,0.00,,,0.00,WUHU216HW,2013-04-14 05:35:00,
2013-04-13 23:41:00,28.1,23.6,23.01,WNW,293,0.4,0.7,83,0.00,,,0.00,WUHU216HW,2013-04-14 05:41:00,
2013-04-13 23:46:00,27.9,23.4,23.01,WNW,293,0.0,0.7,83,0.00,,,0.00,WUHU216HW,2013-04-14 05:46:00,
2013-04-13 23:51:00,27.7,23.2,23.02,WNW,293,0.4,0.7,83,0.00,,,0.00,WUHU216HW,2013-04-14 05:51:00,
2013-04-13 23:57:00,27.7,23.2,23.02,WNW,293,0.0,0.7,83,0.00,,,0.00,WUHU216HW,2013-04-14 05:57:00,